Lambertville, MI

4:52 PM EDT on May 24, 2017 (GMT -0400)
Lambertville

Weather History for KDUH - April, 2013

Change the Weather History Date:

Monday, April 1, 2013

  Actual Average (KTOL) Record (KTOL)
Temperature  
Mean Temperature 36 °F -  
Max Temperature 44 °F 52 °F 80 °F (2010)
Min Temperature 26 °F 34 °F 11 °F (1964)
Degree Days  
Heating Degree Days 30    
Moisture  
Dew Point 16 °F    
Average Humidity 47    
Maximum Humidity 77    
Minimum Humidity 27    
Precipitation  
Precipitation 0.00 in - - ()
Sea Level Pressure  
Sea Level Pressure 29.95 in    
Wind  
Wind Speed 9 mph (WNW)    
Max Wind Speed 17 mph    
Max Gust Speed 24 mph    
Visibility 10 miles    
Events Snow    
Averages and records for this station are not official NWS values.
T = Trace of Precipitation, MM = Missing Value Source: NWS Daily Summary

Daily Weather History Graph

Daily Weather History Graph

Search for Another Location

Airport or City:

Trip Planner

Search our weather history database for the weather conditions in past years. The results will help you decide how hot, cold, wet, or windy it might be!

Date:

Astronomy

Apr. 01, 2013 Rise Set
Actual Time 7:17 AM EDT 8:00 PM EDT
Civil Twilight 6:49 AM EDT 8:28 PM EDT
Nautical Twilight 6:15 AM EDT 9:01 PM EDT
Astronomical Twilight 5:41 AM EDT 9:36 PM EDT
Moon 1:11 AM EDT (4/1) 10:59 AM EDT (4/1)
Length of Visible Light 13h 39m
Length of Day
12h 43m
Waning Gibbous, 67% of the Moon is Illuminated
Apr 1
Waning Gibbous
Apr 3
Last Quarter
Apr 10
New
Apr 18
First Quarter
Apr 25
Full

Hourly Weather History & Observations

Time (EDT) Temp. Windchill Dew Point Humidity Pressure Visibility Wind Dir Wind Speed Gust Speed Precip Events Conditions
12:15 AM 44.6 °F 39.2 °F 30.9 °F 59% 29.72 in 10.0 mi WNW 10.4 mph 17.3 mph N/A   Mostly Cloudy
12:35 AM 43.7 °F 37.7 °F 31.5 °F 62% 29.72 in 10.0 mi WNW 11.5 mph 20.7 mph N/A   Mostly Cloudy
12:55 AM 41.9 °F 34.6 °F 28.4 °F 59% 29.74 in 10.0 mi NW 13.8 mph 21.9 mph N/A   Scattered Clouds
1:15 AM 40.1 °F 33.6 °F 27.3 °F 60% 29.74 in 10.0 mi WNW 10.4 mph - N/A   Clear
1:35 AM 39.6 °F 34.0 °F 27.0 °F 61% 29.74 in 10.0 mi WNW 8.1 mph 17.3 mph N/A   Clear
1:55 AM 38.7 °F 33.6 °F 27.1 °F 63% 29.75 in 10.0 mi West 6.9 mph - N/A   Clear
2:15 AM 37.9 °F 33.5 °F 27.0 °F 65% 29.75 in 10.0 mi WNW 5.8 mph - N/A   Clear
2:35 AM 37.4 °F 33.8 °F 26.6 °F 65% 29.75 in 10.0 mi WNW 4.6 mph - N/A   Clear
2:55 AM 37.4 °F 31.4 °F 27.5 °F 67% 29.76 in 10.0 mi West 8.1 mph - N/A   Clear
3:15 AM 36.9 °F 30.7 °F 26.4 °F 66% 29.77 in 10.0 mi West 8.1 mph - N/A   Clear
3:35 AM 36.5 °F 30.3 °F 26.6 °F 67% 29.78 in 10.0 mi West 8.1 mph - N/A   Clear
3:55 AM 36.5 °F 30.3 °F 27.3 °F 69% 29.78 in 10.0 mi West 8.1 mph - N/A   Mostly Cloudy
4:15 AM 36.7 °F 28.0 °F 27.1 °F 68% 29.80 in 10.0 mi NNW 13.8 mph 21.9 mph N/A   Overcast
4:35 AM 33.8 °F 25.8 °F 27.3 °F 77% 29.82 in 5.0 mi NNW 10.4 mph - N/A Snow Light Snow
5:15 AM 33.6 °F 26.8 °F 24.8 °F 70% 29.84 in 10.0 mi NW 8.1 mph - N/A   Mostly Cloudy
5:35 AM 32.7 °F 26.4 °F 23.9 °F 70% 29.86 in 10.0 mi NW 6.9 mph - N/A   Clear
5:55 AM 32.0 °F 25.6 °F 23.7 °F 71% 29.87 in 10.0 mi WNW 6.9 mph - N/A   Clear
6:15 AM 31.6 °F 25.1 °F 23.5 °F 72% 29.88 in 10.0 mi WNW 6.9 mph - N/A   Clear
6:35 AM 31.1 °F 24.5 °F 23.2 °F 72% 29.89 in 10.0 mi NW 6.9 mph - N/A   Clear
6:55 AM 31.1 °F 24.5 °F 22.5 °F 70% 29.90 in 10.0 mi NW 6.9 mph - N/A   Clear
7:15 AM 30.7 °F 27.3 °F 21.7 °F 69% 29.91 in 10.0 mi WNW 3.5 mph - N/A   Clear
7:35 AM 29.8 °F 23.0 °F 21.4 °F 71% 29.93 in 10.0 mi WNW 6.9 mph - N/A   Clear
7:55 AM 30.7 °F 23.3 °F 15.8 °F 54% 29.94 in 10.0 mi NW 8.1 mph - N/A   Clear
8:15 AM 31.3 °F 25.6 °F 16.5 °F 54% 29.95 in 10.0 mi NW 5.8 mph - N/A   Clear
8:35 AM 32.0 °F 24.2 °F 15.1 °F 50% 29.96 in 10.0 mi NW 9.2 mph - N/A   Clear
8:55 AM 32.4 °F 24.6 °F 14.9 °F 49% 29.97 in 10.0 mi NNW 9.2 mph - N/A   Clear
9:15 AM 33.1 °F 24.4 °F 14.7 °F 47% 29.97 in 10.0 mi WNW 11.5 mph - N/A   Clear
9:35 AM 33.4 °F 24.8 °F 14.0 °F 45% 29.98 in 10.0 mi WNW 11.5 mph 21.9 mph N/A   Scattered Clouds
9:55 AM 34.2 °F 24.8 °F 12.7 °F 41% 29.98 in 10.0 mi NW 13.8 mph 21.9 mph N/A   Scattered Clouds
10:15 AM 34.7 °F 25.1 °F 10.8 °F 37% 29.98 in 10.0 mi WNW 15.0 mph 23.0 mph N/A   Clear
10:35 AM 35.2 °F 26.6 °F 10.8 °F 36% 29.98 in 10.0 mi NW 12.7 mph 20.7 mph N/A   Clear
10:55 AM 36.5 °F 29.7 °F 10.9 °F 35% 29.99 in 10.0 mi NW 9.2 mph 19.6 mph N/A   Scattered Clouds
11:15 AM 36.0 °F 26.7 °F 8.6 °F 32% 30.00 in 10.0 mi WNW 15.0 mph 24.2 mph N/A   Scattered Clouds
11:35 AM 37.4 °F 29.8 °F 9.3 °F 31% 30.00 in 10.0 mi WNW 11.5 mph 20.7 mph N/A   Scattered Clouds
12:15 PM 38.3 °F 31.4 °F 10.6 °F 32% 30.00 in 10.0 mi WNW 10.4 mph 16.1 mph N/A   Scattered Clouds
12:35 PM 38.5 °F 32.1 °F 10.0 °F 31% 30.00 in 10.0 mi WNW 9.2 mph 23.0 mph N/A   Scattered Clouds
12:55 PM 39.2 °F 32.5 °F 10.6 °F 31% 30.00 in 10.0 mi West 10.4 mph 19.6 mph N/A   Scattered Clouds
1:15 PM 39.6 °F 31.0 °F 11.7 °F 32% 30.01 in 10.0 mi West 16.1 mph 20.7 mph N/A   Mostly Cloudy
1:35 PM 40.8 °F 34.1 °F 11.7 °F 30% 30.00 in 10.0 mi West 11.5 mph 19.6 mph N/A   Scattered Clouds
1:55 PM 40.1 °F 33.6 °F 9.3 °F 28% 30.00 in 10.0 mi NW 10.4 mph 21.9 mph N/A   Clear
2:15 PM 41.9 °F 34.6 °F 11.1 °F 28% 30.00 in 10.0 mi West 13.8 mph 23.0 mph N/A   Scattered Clouds
2:35 PM 40.3 °F 33.4 °F 9.0 °F 28% 30.00 in 10.0 mi NW 11.5 mph 17.3 mph N/A   Mostly Cloudy
2:55 PM 41.9 °F 33.7 °F 10.9 °F 28% 30.00 in 10.0 mi West 17.3 mph 23.0 mph N/A   Mostly Cloudy
3:15 PM 40.5 °F 32.5 °F 9.1 °F 28% 30.00 in 10.0 mi WNW 15.0 mph 23.0 mph N/A   Scattered Clouds
3:35 PM 40.6 °F 33.8 °F 8.8 °F 27% 30.00 in 10.0 mi NW 11.5 mph 19.6 mph N/A   Mostly Cloudy
3:55 PM 39.4 °F 33.8 °F 9.9 °F 30% 30.00 in 10.0 mi WNW 8.1 mph 17.3 mph N/A   Mostly Cloudy
4:15 PM 39.6 °F 32.5 °F 9.0 °F 28% 30.00 in 10.0 mi West 11.5 mph 16.1 mph N/A   Mostly Cloudy
4:35 PM 39.4 °F 31.4 °F 9.9 °F 30% 30.00 in 10.0 mi WNW 13.8 mph 19.6 mph N/A   Mostly Cloudy
4:55 PM 39.4 °F 33.2 °F 8.2 °F 28% 30.01 in 10.0 mi WNW 9.2 mph 19.6 mph N/A   Mostly Cloudy
5:15 PM 38.5 °F 31.6 °F 8.1 °F 28% 30.02 in 10.0 mi WNW 10.4 mph 23.0 mph N/A   Mostly Cloudy
5:35 PM 40.5 °F 34.1 °F 10.2 °F 29% 30.01 in 10.0 mi WNW 10.4 mph 17.3 mph N/A   Mostly Cloudy
6:15 PM 39.6 °F 33.0 °F 9.3 °F 29% 30.03 in 10.0 mi WNW 10.4 mph 21.9 mph N/A   Scattered Clouds
6:35 PM 37.9 °F 30.5 °F 9.0 °F 30% 30.03 in 10.0 mi WNW 11.5 mph 19.6 mph N/A   Mostly Cloudy
7:15 PM 36.1 °F 29.3 °F 8.8 °F 32% 30.05 in 10.0 mi WNW 9.2 mph 18.4 mph N/A   Scattered Clouds
7:35 PM 34.9 °F 28.3 °F 9.7 °F 35% 30.06 in 10.0 mi WNW 8.1 mph 20.7 mph N/A   Scattered Clouds
7:55 PM 33.8 °F 25.3 °F 9.5 °F 36% 30.06 in 10.0 mi NW 11.5 mph 18.4 mph N/A   Clear
8:15 PM 32.5 °F 25.5 °F 10.4 °F 40% 30.07 in 10.0 mi WNW 8.1 mph - N/A   Clear
8:35 PM 32.0 °F 24.2 °F 10.8 °F 41% 30.07 in 10.0 mi NW 9.2 mph - N/A   Clear
8:55 PM 31.5 °F 23.5 °F 11.1 °F 43% 30.08 in 10.0 mi NW 9.2 mph 17.3 mph N/A   Clear
9:15 PM 31.1 °F 24.5 °F 11.1 °F 43% 30.09 in 10.0 mi NW 6.9 mph - N/A   Clear
9:35 PM 30.2 °F 21.3 °F 11.1 °F 45% 30.10 in 10.0 mi NW 10.4 mph - N/A   Clear
9:55 PM 30.0 °F 24.1 °F 10.8 °F 45% 30.10 in 10.0 mi NW 5.8 mph 9.2 mph N/A   Clear
10:15 PM 29.7 °F 22.8 °F 10.4 °F 45% 30.11 in 10.0 mi NW 6.9 mph - N/A   Clear
10:35 PM 29.1 °F 23.0 °F 10.8 °F 46% 30.11 in 10.0 mi WNW 5.8 mph - N/A   Clear
10:55 PM 28.4 °F - 11.3 °F 49% 30.12 in 10.0 mi Calm Calm - N/A   Clear
11:15 PM 27.7 °F 23.8 °F 11.5 °F 51% 30.12 in 10.0 mi West 3.5 mph - N/A   Clear
11:35 PM 27.5 °F - 11.3 °F 51% 30.12 in 10.0 mi Calm Calm - N/A   Clear
11:55 PM 26.6 °F - 11.3 °F 53% 30.12 in 10.0 mi Calm Calm - N/A   Clear